sat.trackr.live / text

‹ back to catalog

QIANFAN-209

NORAD 69808 · 2026-153J

PAYLOAD ACTIVE UNKNOWN

§ Identity

Operator
Country
PRC
Launch date
2026-07-04
Launch site
TAISC
Launch vehicle
Mass (kg)
RCS (m²)

External: N2YO · Heavens-Above · Gunter

§ Orbital elements

Epoch: 2026-09-20T04:20:24.277056Z

Period
102.64 min
Inclination
88.9982°
Eccentricity
0.0006592
Mean motion
14.02902201 rev/d
Perigee alt
879.0 km
Apogee alt
888.5 km
Semi-major
7,261.9 km
B*
-4.0916e-5
RAAN
351.5035°
Arg perigee
340.4768°
Mean anomaly
19.6159°
Rev number
1,100

§ Raw data

QIANFAN-2091 69808U 26153J   26263.18083654 -.00000050  00000+0 -40916-4 0  99922 69808  88.9982 351.5035 0006592 340.4768  19.6159 14.02902201 11007

JSON: /api/v1/satellites/69808 · /tle

For live sub-satellite position, see the globe view (requires WebGL).

§ Visibility from observer

Set your observer location to see the next 7 days of passes ≥ 10°. The values pass through the URL so the page stays shareable.

No JS? Fill the form by hand. The geolocation button needs JavaScript.